Location: Bayshore Village Mobile Home Park
(26.6945°N, 81.8642°W)
Time: 16:20:44
(UTC+00:00)

SL-16 R/B - Pass Details

Date: 17 June 2021
Orbit: 842 x 847 km, 71.0° (Epoch: 26 July)

Event Time Altitude Azimuth Distance (km) Brightness Sun altitude
Exits shadow 06:07:35 23° 340° (NNW) 1,744 4.2 -39.0°
Drops below altitude 10° 06:09:59 10° 358° (N) 2,465 5.3 -38.9°
Sets 06:12:40 0° 7° (N) 3,402 6.3 -38.8°
